Content
SEND FEEDBACK

Daily
Averages
Monthly
Summary
Canada

ST. HILAIRE DORSET, QUEBEC


Home > North America > Canada > Quebec
Elevation: 1660 feet     Latitude: 45 52N     Longitude: 70 52W

WEATHER
 
SELECT A DAY
Number of Records: 142,233;   Date Range: 1/1/95 - 9/30/14
 
SHARE

PRINT THIS DATA

[ ← Previous Day ]
WEATHER ALMANAC - FEBRUARY 5, 2013
[ Next Day → ]
[ °C ]   °F
Weather ElementAverageHighLow
Temperature-0.6 °F8.6 °F (3:00 pm)-10.1 °F (7:00 am)
Dewpoint-11.8 °F-5.6 °F (7:00 pm)-18.2 °F (9:00 am)
Humidity57.8 %77 % (11:00 pm)30 % (1:00 pm)
Barometer29.94 in30.00 in (10:00 am)29.81 in (1:00 am)
Wind Speed3.7 mph6.9 mph (1:00 am)
Weather ElementAverage
Wind DirectionWSW (238.5 °)

Weather ElementTotal
Precipitation---
Heating Degree Days65.8 (Base 65)
Averaged from 27 records on February 5, 2013
WEATHER CONDITIONS BREAKOUT
WIND DIRECTION BREAKOUT
WEATHER BY HOUR - FEBRUARY 5, 2013
[ °C ]   °F
Local TimeTemperatureDewpointHumidityBarometerVisibilityWind DirectionWind SpeedGust SpeedPrecipitationEventsConditions
1:00 AM-2.0 °F-12.0 °F49 %29.81 inWNW (290°)6.9 mph
1:00 AM-2.2 °F-11.6 °F64 %29.81 inWNW (290°)6.9 mph
2:00 AM-3.6 °F-13.5 °F63 %29.84 inWest (280°)6.9 mph
3:00 AM-4.9 °F-14.4 °F64 %29.86 inWNW (290°)6.9 mph
4:00 AM-6.2 °F-15.2 °F65 %29.88 inWNW (290°)5.8 mph
5:00 AM-7.8 °F-16.1 °F67 %29.90 inWest (280°)5.8 mph
6:00 AM-8.7 °F-16.8 °F68 %29.92 inWest (280°)3.5 mph
7:00 AM-10.0 °F-17.0 °F58 %29.95 inWNW (300°)1.2 mph
7:00 AM-10.1 °F-17.0 °F72 %29.95 inWNW (300°)1.2 mph
8:00 AM-8.3 °F-17.5 °F64 %29.98 inWNW (290°)2.3 mph
9:00 AM-6.5 °F-18.2 °F57 %29.99 inWest (270°)3.5 mph
10:00 AM-3.8 °F-17.9 °F51 %30.00 inWSW (250°)4.6 mph
11:00 AM0.0 °F-15.9 °F47 %30.00 inWest (270°)4.6 mph
12:00 PM3.4 °F-12.6 °F47 %29.99 inWSW (250°)4.6 mph
1:00 PM5.0 °F-11.0 °F30 %29.97 inSW (220°)3.5 mph
1:00 PM5.4 °F-11.4 °F46 %29.97 inSW (220°)3.5 mph
2:00 PM8.2 °F-10.1 °F43 %29.97 inSW (230°)3.5 mph
3:00 PM8.6 °F-9.8 °F43 %29.97 inSW (220°)4.6 mph
4:00 PM8.1 °F-9.2 °F45 %29.97 inSSW (200°)3.5 mph
5:00 PM6.3 °F-6.9 °F55 %29.96 inSSW (200°)1.2 mph
6:00 PM2.1 °F-7.2 °F65 %29.98 inSouth (180°)2.3 mph
7:00 PM5.0 °F-6.0 °F47 %29.97 inSouth (180°)2.3 mph
7:00 PM4.8 °F-5.6 °F62 %29.97 inSouth (180°)2.3 mph
8:00 PM2.1 °F-6.5 °F67 %29.96 inSouth (170°)2.3 mph
9:00 PM2.3 °F-5.8 °F69 %29.95 inSouth (170°)1.2 mph
10:00 PM-1.8 °F-7.6 °F76 %29.96 inSouth (170°)2.3 mph
11:00 PM-0.8 °F-6.5 °F77 %29.95 inSouth (170°)2.3 mph
Hourly data recorded from CWHV, located miles away from St. Hilaire Dorset, Quebec







STORIES FROM OUR PARTNERS